Regional Weather Roundup
Issued by NWS

Home | Current Version | Previous Version | Graphics & Text | Print | Product List | Glossary On
Versions: 1 2 3 4 5 6 7 8 9 10 11 12 13 14 15 16 17 18 19 20 21 22 23 24 25 26 27 28 29 30 31 32 33 34 35 36 37 38 39 40 41 42 43 44 45 46 47 48 49 50
000
ASUS43 KMKX 012221
RWRWI

WISCONSIN REGIONAL WEATHER ROUNDUP
NATIONAL WEATHER SERVICE MILWAUKEE/SULLIVAN WI
500 PM CDT TUE SEP 01 2015

NOTE: "FAIR" INDICATES FEW OR NO CLOUDS BELOW 12,000 FEET WITH NO
SIGNIFICANT WEATHER AND/OR OBSTRUCTIONS TO VISIBILITY.

WIZ001-002-006>008-014>016-023>028-012300-
NORTHWEST WISCONSIN

CITY           SKY/WX    TMP DP  RH WIND       PRES   REMARKS
SUPERIOR ARPT  MOSUNNY   82  72  72 SW5       29.88R HX  87
ASHLAND        MOSUNNY   83  74  74 W3        29.90R HX  89
HAYWARD        PTSUNNY   83  70  64 SW7       29.92S HX  87
SIREN          PTSUNNY   83  70  64 SW5       29.91S HX  87
CUMBERLAND     CLOUDY    79  70  73 S5        29.93R HX  81
RICE LAKE      CLOUDY    81  71  71 CALM      29.93S HX  84
CHETEK         CLOUDY   N/A N/A N/A CALM      29.91F
LADYSMITH      PTSUNNY   82  71  68 CALM      29.94F HX  86
EAU CLAIRE     PTSUNNY   86  73  65 S7        29.89F HX  93
MENOMONIE      CLOUDY    85  73  66 CALM      29.90S HX  92
NEW RICHMOND   CLOUDY    82  72  71 CALM      29.90S HX  86
OSCEOLA        CLOUDY    82  71  70 CALM      29.92S HX  86
$$

WIZ003>005-009-010-017-018-012300-
NORTH CENTRAL WISCONSIN

CITY           SKY/WX    TMP DP  RH WIND       PRES   REMARKS
MANITOWISH WTR CLOUDY    80  70  70 SW8       29.95S HX  83
ARBOR VITAE    CLOUDY    82  70  65 W6        29.96S HX  86
WOODRUFF       CLOUDY    82  70  65 W6        29.96S HX  86
RHINELANDER    PTSUNNY   81  67  62 W5        29.96F HX  83
EAGLE RIVER    CLOUDY    80  64  58 W7        29.96S HX  81
LAND O LAKES   CLOUDY    81  65  59 SW5       29.96S HX  83
PHILLIPS       PTSUNNY   80  70  70 SW6       29.94S HX  83
TOMAHAWK       PTSUNNY   80  69  69 CALM      29.95F HX  82
MEDFORD        PTSUNNY   80  71  73 SW5       29.95S HX  84
MERRILL        MOSUNNY   83  72  67 SW8       29.95S HX  88
$$

WIZ029-030-035-036-043>047-012300-
CENTRAL WISCONSIN

CITY           SKY/WX    TMP DP  RH WIND       PRES   REMARKS
WAUSAU         MOSUNNY   85  69  58 S6        29.92F HX  89
MOSINEE        NOT AVBL
MARSHFIELD     PTSUNNY   86  69  56 SW7       29.94S HX  90
STEVENS POINT  MOSUNNY   84  69  59 SW9G16    29.94F HX  88
WAUPACA        PTSUNNY   87  69  54 S5        29.93S HX  92
WAUTOMA        PTSUNNY   88  70  55 S8        29.94S HX  93
WISC RAPIDS    MOSUNNY   86  68  54 S9        29.94F HX  89
CAMP DOUGLAS   PTSUNNY   88  75  66 S8        29.93S HX  97
$$

WIZ011>013-019>022-031-037>040-048>050-012300-
NORTHEAST WISCONSIN

CITY           SKY/WX    TMP DP  RH WIND       PRES   REMARKS
ANTIGO         PTSUNNY   82  69  65 SW6       29.96F HX  85
SHAWANO        MOSUNNY   88  68  52 SW6       29.93S HX  92
OCONTO         MOSUNNY   85  71  63 SW7       29.92R HX  90
STURGEON BAY   MOSUNNY   81  72  74 S6        29.96S HX  84
GREEN BAY      MOSUNNY   85  71  63 SW7       29.93S HX  90
MANITOWOC      MOSUNNY   81  70  69 MISG      29.95S HX  84
APPLETON       PTSUNNY   86  64  48 SW9       29.93F HX  87
CLINTONVILLE   PTSUNNY   86  68  54 SW8       29.93S HX  89
OSHKOSH        MOSUNNY   85  71  63 S10       29.94S HX  90
$$

WIZ032>034-041-042-053>061-012300-
SOUTHWEST WISCONSIN

CITY           SKY/WX    TMP DP  RH WIND       PRES   REMARKS
LA CROSSE      MOSUNNY   89  73  59 S12       29.90S HX  97
SPARTA         MOSUNNY   88  69  53 S9        29.93R HX  92
VIROQUA          N/A     85  72  66 SW7       29.96R HX  91
BOSCOBEL       SUNNY     90  72  55 S9        29.93S HX  97
PRAIRIE DU CHI SUNNY     87  70  56 S6        29.93R HX  92
PLATTEVILLE    SUNNY     85  74  69 S14       29.97S HX  93
$$

WIZ056-057-062-063-064-067-068-012300-
SOUTH CENTRAL WISCONSIN

CITY           SKY/WX    TMP DP  RH WIND       PRES   REMARKS
REEDSBURG      SUNNY     87  73  62 S8        29.94S HX  94
BARABOO/DELLS  SUNNY     87  68  53 S10       29.95S HX  91
LONE ROCK      SUNNY     88  72  58 SW13      29.94S HX  94
MINERAL POINT  SUNNY     88  72  58 S9        29.97S HX  94
MADISON        MOSUNNY   87  70  56 S13G21    29.95F HX  92
MIDDLETON      SUNNY     88  69  53 S13       29.96F HX  92
WATERTOWN      SUNNY     87  72  61 SW12      29.96S HX  92
MONROE         SUNNY     86  72  62 S14       29.98S HX  92
JANESVILLE     MOSUNNY   90  72  55 SW12      29.97S HX  96
$$

WIZ051-052-058>065-066-070>072-012300-
SOUTHEAST WISCONSIN

CITY           SKY/WX    TMP DP  RH WIND       PRES   REMARKS
MILWAUKEE      MOSUNNY   88  68  51 SW14      29.96F HX  91
WAUKESHA       MOSUNNY   84  66  54 SW12      29.98F HX  86
MILWAUKEE/TIMM MOSUNNY   88  64  45 SW10      29.97F HX  89
RACINE         MOSUNNY   88  69  53 SW8       29.98F HAZE    HX  92
BURLINGTON     SUNNY     85  68  56 SW9       29.98S HX  88
KENOSHA        SUNNY     88  70  55 SW13      29.98F HX  93
FOND DU LAC    MOSUNNY   86  70  58 SW9       29.95S HX  90
SHEBOYGAN      SUNNY     85  72  65 S7        29.95F HX  91
WEST BEND      MOSUNNY   86  68  54 SW9       29.96F HX  89
JUNEAU         SUNNY     85  72  63 S9        29.97S HX  91
$$

LSZ147-162-012300-
LAKE SUPERIOR

STATION/POSITION TIME  TEMP    WIND        PRES    WAVE
                       AIR SEA DIR/SP/G            HT/PER
                 (UTC) (F)     (DEG/KT/KT) (MB)    (FT/S)
W MID LAKE BUOY  2150   61 56  230/  6/  6 1011.8F   0
DEVILS ISLAND    2200   73     230/  5/  7 1011.7F
PORT WING        2140   78      CALM  /  1 1012.2S
SAXON HARBOR     2100   72        CALM     1011.9S
$$

LMZ867-665-643>646-012300-
LAKE MICHIGAN

STATION/POSITION TIME  TEMP    WIND        PRES    WAVE
                       AIR SEA DIR/SP/G            HT/PER
                 (UTC) (F)     (DEG/KT/KT) (MB)    (FT/S)
CHAMBERS ISLAND  2100   82     130/  5/  9 1012.9F
S GREEN BAY BUOY 2130   73 67  200/  6/  8 1014.7F
N MID LAKE BUOY  2150   67 65  210/ 14/ 16 1013.5F   2/ 3
NORTHPORT PIER   2100   76     160/  8/ 12 1013.2F
SISTER BAY       2104   83     170/ 13/ 15   N/A
ALGOMA LAKESHORE 2114          170/  1/  4   N/A
KEWAUNEE LAKESHO 2200   54     170/ 10/ 12 1013.1S
SHEBOYGAN LAKESH 2200   72     180/ 19/ 20 1014.3S
PORT WASHINGTON  2140   67     180/  3/  6 1014.9F
ATWATER BUOY     2200   60 50  160/ 10/ 14 1015.8F
S MID LAKE BUOY  2150   73 70  180/ 12/ 14 1015.0F
KENOSHA   LAKESH 2200   73     190/  8/ 12 1014.6F
$$

TC  - TEMPERATURE IN CELSIUS
VSB - VISIBILITY IN STATUTE MILES
WCI - WIND CHILL INDEX
HX  - HEAT INDEX




USA.gov is the U.S. government's official web portal to all federal, state and local government web resources and services.